Regional Weather Roundup
Issued by NWS Goodland, KS

Home | Current Version | Previous Version | Graphics & Text | Print | Product List | Glossary On
Versions: 1 2 3 4 5 6 7 8 9 10 11 12 13 14 15 16 17 18 19 20 21 22 23 24 25 26 27 28 29 30 31 32 33 34 35 36 37 38 39 40 41 42 43 44 45 46 47 48 49 50
000
ASUS43 KGLD 290708
RWRGLD

GOODLAND FORECAST AREA HOURLY WEATHER ROUNDUP
NATIONAL WEATHER SERVICE GOODLAND KS
100 AM MDT SAT AUG 29 2015

...OFFICIAL OBSERVATIONS...

CITY           SKY/WX    TMP DP  RH WIND       PRES   REMARKS
GOODLAND KS    CLEAR     62  57  83 S5        30.18S
HILL CITY KS   CLEAR     60  58  92 NW5       30.09S
IMPERIAL NEB   CLEAR     61  57  87 W3        30.16R
MCCOOK NEB     CLEAR     62  59  90 CALM      30.12R
AKRON CO       CLEAR     63  48  58 SE8       30.24S
BURLINGTON CO  CLEAR     60  52  74 S3        30.22S
LIMON CO       CLEAR     49  43  80 N3        30.30S
$$

...UNOFFICIAL OBSERVATIONS...

CITY           SKY/WX    TMP DP  RH WIND       PRES   REMARKS
COLBY KS       CLEAR     59  59 100 SW3       30.16S
GOVE KS          N/A     60  32  34 MISG        N/A
LENORA KS        N/A     62  32  32 MISG        N/A
NORTON KS      CLEAR     57  55  94 W7        30.09S
SHARON SPRINGS   N/A     61  55  79 CALM        N/A
TRENTON NEB      N/A     64  32  30 CALM        N/A
YUMA CO          N/A     55  46  73 CALM        N/A
$$


USA.gov is the U.S. government's official web portal to all federal, state and local government web resources and services.